This is the latest recevied weather packets stored in our database for station/object SP2ARK-10. If no packets are shown the sender has not sent any weather packets the latest 10 day(s).
| Time | Temp. | Humidity | Pressure | Rain* | Wind** | Luminosity | Snow |
|---|---|---|---|---|---|---|---|
| 1777760354 | 20° C | 60% | 1023.6 hPa | - | - | - | - |
| 1777759453 | 20° C | 60% | 1023.6 hPa | - | - | - | - |
| 1777757652 | 20.56° C | 59% | 1023.6 hPa | - | - | - | - |
| 1777756751 | 21.11° C | 59% | 1023.6 hPa | - | - | - | - |
| 1777755850 | 21.11° C | 59% | 1023.7 hPa | - | - | - | - |
| 1777754949 | 21.67° C | 58% | 1023.8 hPa | - | - | - | - |
| 1777753147 | 22.22° C | 58% | 1023.9 hPa | - | - | - | - |
| 1777752247 | 22.78° C | 58% | 1024 hPa | - | - | - | - |
| 1777751346 | 22.78° C | 57% | 1024 hPa | - | - | - | - |
| 1777750445 | 22.22° C | 57% | 1023.9 hPa | - | - | - | - |
| 1777749544 | 21.67° C | 55% | 1024 hPa | - | - | - | - |
| 1777746842 | 22.78° C | 54% | 1023.8 hPa | - | - | - | - |
| 1777745941 | 23.89° C | 53% | 1023.8 hPa | - | - | - | - |
| 1777745040 | 24.44° C | 53% | 1023.6 hPa | - | - | - | - |
| 1777744140 | 25° C | 51% | 1023.6 hPa | - | - | - | - |
| 1777742338 | 25.56° C | 50% | 1023.9 hPa | - | - | - | - |
| 1777740536 | 26.11° C | 49% | 1024.1 hPa | - | - | - | - |
| 1777737834 | 27.78° C | 48% | 1024.3 hPa | - | - | - | - |
| 1777736934 | 27.78° C | 48% | 1024.6 hPa | - | - | - | - |
| 1777736033 | 27.78° C | 49% | 1024.6 hPa | - | - | - | - |
| 1777735132 | 27.78° C | 48% | 1025.1 hPa | - | - | - | - |
| 1777734230 | 27.78° C | 49% | 1025.1 hPa | - | - | - | - |
| 1777733329 | 27.78° C | 48% | 1025.3 hPa | - | - | - | - |
| 1777732428 | 27.78° C | 49% | 1025.4 hPa | - | - | - | - |
| 1777731528 | 26.67° C | 50% | 1025.6 hPa | - | - | - | - |
* Rain since midnight (hover to see other rain measurements)
** Current wind speed in m/s (hover to see current wind gust speed)